This is the latest recevied weather packets stored in our database for station/object N8QQQ. If no packets are shown the sender has not sent any weather packets the latest 10 day(s).
| Time | Temp. | Humidity | Pressure | Rain* | Wind** | Luminosity | Snow |
|---|---|---|---|---|---|---|---|
| 1777428047 | 2.78° C | 92% | 1014.6 hPa | 0 mm | - | 0 W/m² | - |
| 1777427742 | 2.78° C | 92% | 1014.4 hPa | 0 mm | - | 0 W/m² | - |
| 1777427440 | 2.78° C | 91% | 1014.6 hPa | 0 mm | - | 0 W/m² | - |
| 1777427135 | 2.78° C | 91% | 1014.4 hPa | 0 mm | - | 0 W/m² | - |
| 1777426834 | 3.33° C | 90% | 1014.3 hPa | 0 mm | - | 0 W/m² | - |
| 1777426530 | 3.33° C | 89% | 1014.1 hPa | 0 mm | - | 0 W/m² | - |
| 1777426226 | 3.33° C | 88% | 1014.2 hPa | 0 mm | - | 0 W/m² | - |
| 1777425921 | 3.89° C | 87% | 1013.8 hPa | 0 mm | - | 0 W/m² | - |
| 1777425617 | 3.89° C | 87% | 1013.9 hPa | 0 mm | - | 0 W/m² | - |
| 1777425313 | 3.89° C | 87% | 1014 hPa | 0 mm | - | 0 W/m² | - |
| 1777425010 | 3.89° C | 86% | 1014.1 hPa | 0 mm | - | 0 W/m² | - |
| 1777424705 | 3.89° C | 87% | 1013.9 hPa | 0 mm | - | 1 W/m² | - |
| 1777424401 | 3.89° C | 86% | 1013.9 hPa | 0 mm | - | 1 W/m² | - |
| 1777424096 | 4.44° C | 85% | 1013.8 hPa | 0 mm | - | 2 W/m² | - |
| 1777423794 | 4.44° C | 84% | 1013.8 hPa | 0 mm | - | 3 W/m² | - |
| 1777423490 | 4.44° C | 83% | 1013.7 hPa | 0 mm | - | 5 W/m² | - |
| 1777423185 | 4.44° C | 82% | 1013.7 hPa | 0 mm | - | 5 W/m² | - |
| 1777422878 | 5° C | 83% | 1013.7 hPa | 0 mm | - | 7 W/m² | - |
| 1777422575 | 5° C | 82% | 1013.8 hPa | 0 mm | - | 10 W/m² | - |
| 1777422271 | 5° C | 82% | 1013.5 hPa | 0 mm | - | 13 W/m² | - |
| 1777421965 | 5° C | 82% | 1013.5 hPa | 0 mm | - | 17 W/m² | - |
| 1777421660 | 5° C | 81% | 1013.5 hPa | 0 mm | - | 20 W/m² | - |
| 1777421355 | 5° C | 81% | 1013.6 hPa | 0 mm | - | 17 W/m² | - |
| 1777421046 | 5° C | 81% | 1013.6 hPa | 0 mm | - | 23 W/m² | - |
| 1777420743 | 5° C | 81% | 1013.6 hPa | 0 mm | - | 25 W/m² | - |
* Rain latest hour (hover to see other rain measurements)
** Current wind speed in m/s (hover to see current wind gust speed)